CT1AKV-10 Weather Reports


time (UTC)temp
C
wind
direction
speed
KPH
gust
KPH
rain 1hr
cm
rain 24hr
cm
rain mn
cm
humidity
%
barometer
mb
20200216174503 16 0 0.0 0.0 0.00 0.00 0.00 21 1010.0
20200216173004 16 0 0.0 0.0 0.00 0.00 0.00 19 1009.9
20200216171503 16 0 0.0 0.0 0.00 0.00 0.00 19 1010.0
20200216170004 17 0 0.0 0.0 0.00 0.00 0.00 18 1009.9
20200216163008 17 0 0.0 0.0 0.00 0.00 0.00 28 1009.8
20200216161503 17 0 0.0 0.0 0.00 0.00 0.00 30 1009.7
20200216154504 17 0 0.0 0.0 0.00 0.00 0.00 43 1009.9
20200216153004 17 0 0.0 0.0 0.00 0.00 0.00 46 1009.9
20200216144503 17 0 0.0 0.0 0.00 0.00 0.00 76 1010.0
20200216140003 16 0 0.0 0.0 0.00 0.00 0.00 99 1010.1
20200216134503 16 0 0.0 0.0 0.00 0.00 0.00 99 1010.3
20200216133004 16 0 0.0 0.0 0.00 0.00 0.00 99 1010.5
20200216131504 15 0 0.0 0.0 0.00 0.00 0.00 99 1010.6
20200216124503 14 0 0.0 0.0 0.00 0.00 0.00 99 1010.9
20200216123004 14 0 0.0 0.0 0.00 0.00 0.00 99 1011.2
20200216121503 14 0 0.0 0.0 0.00 0.00 0.00 99 1011.5
20200216120003 13 0 0.0 0.0 0.00 0.00 0.00 99 1011.6
20200216114504 13 0 0.0 0.0 0.00 0.00 0.00 99 1011.7
20200216113003 13 0 0.0 0.0 0.00 0.00 0.00 99 1011.7
20200216111506 12 0 0.0 0.0 0.00 0.00 0.00 99 1011.6
20200216110004 12 0 0.0 0.0 0.00 0.00 0.00 99 1011.6
20200216103004 11 0 0.0 0.0 0.00 0.00 0.00 99 1011.5
20200216101503 11 0 0.0 0.0 0.00 0.00 0.00 99 1011.3
20200216094503 10 0 0.0 0.0 0.00 0.00 0.00 99 1011.1
20200216093005 10 0 0.0 0.0 0.00 0.00 0.00 99 1011.1